Nashua, NH

11:16 AM EDT on July 20, 2017 (GMT -0400)
Boire

Weather History for KASH - May, 2014

Change the Weather History Date:

Monday, May 12, 2014

  Actual Average Record
Temperature  
Mean Temperature 67 °F -  
Max Temperature 86 °F 67 °F 89 °F (2001)
Min Temperature 48 °F 42 °F 28 °F (1962)
Cooling Degree Days 2    
Growing Degree Days 17 (Base 50)    
Moisture  
Dew Point 41 °F    
Average Humidity 39    
Maximum Humidity 77    
Minimum Humidity 17    
Precipitation  
Precipitation 0.00 in - - ()
Sea Level Pressure  
Sea Level Pressure 30.76 in    
Wind  
Wind Speed 3 mph (NW)    
Max Wind Speed 15 mph    
Max Gust Speed 28 mph    
Visibility 10 miles    
Events      
Averages and records for this station are not official NWS values.
T = Trace of Precipitation, MM = Missing Value Source: NWS Daily Summary

Daily Weather History Graph

Daily Weather History Graph

Search for Another Location

Airport or City:

Trip Planner

Search our weather history database for the weather conditions in past years. The results will help you decide how hot, cold, wet, or windy it might be!

Date:

Astronomy

May. 12, 2014 Rise Set
Actual Time 5:26 AM EDT 7:58 PM EDT
Civil Twilight 4:54 AM EDT 8:30 PM EDT
Nautical Twilight 4:14 AM EDT 9:11 PM EDT
Astronomical Twilight 3:29 AM EDT 9:56 PM EDT
Moon 5:50 PM EDT (5/12) 4:07 AM EDT (5/12)
Length of Visible Light 15h 36m
Length of Day
14h 32m
Waxing Gibbous, 95% of the Moon is Illuminated
May 12
Waxing Gibbous
May 14
Full
May 21
Last Quarter
May 28
New
Jun 5
First Quarter

Hourly Weather History & Observations

Time (EDT) Temp. Dew Point Humidity Pressure Visibility Wind Dir Wind Speed Gust Speed Precip Events Conditions
12:51 AM 59.0 °F 39.9 °F 49% 30.77 in 10.0 mi Calm Calm - N/A   Clear
1:51 AM 54.9 °F 41.0 °F 60% 30.77 in 10.0 mi Calm Calm - N/A   Clear
2:51 AM 52.9 °F 41.0 °F 64% 30.78 in 10.0 mi Calm Calm - N/A   Clear
3:51 AM 50.9 °F 41.9 °F 71% 30.79 in 10.0 mi Calm Calm - N/A   Clear
4:51 AM 50.0 °F 41.0 °F 71% 30.80 in 10.0 mi Calm Calm - N/A   Clear
5:51 AM 48.9 °F 41.9 °F 77% 30.81 in 10.0 mi Calm Calm - N/A   Clear
6:51 AM 54.9 °F 43.0 °F 64% 30.82 in 10.0 mi Calm Calm - N/A   Clear
7:51 AM 61.9 °F 41.0 °F 46% 30.82 in 10.0 mi Calm Calm - N/A   Clear
8:51 AM 70.9 °F 41.0 °F 34% 30.83 in 10.0 mi NNW 4.6 mph - N/A   Clear
9:51 AM 75.9 °F 36.9 °F 24% 30.79 in 10.0 mi North 15.0 mph - N/A   Clear
10:51 AM 79.0 °F 38.8 °F 24% 30.79 in 10.0 mi NW 11.5 mph - N/A   Clear
11:51 AM 81.9 °F 39.9 °F 22% 30.77 in 10.0 mi NW 12.7 mph 18.4 mph N/A   Clear
12:51 PM 84.9 °F 39.9 °F 20% 30.75 in 10.0 mi WNW 11.5 mph 18.4 mph N/A   Clear
1:51 PM 86.0 °F 41.0 °F 20% 30.74 in 10.0 mi WNW 5.8 mph 25.3 mph N/A   Clear
2:51 PM 86.0 °F 39.9 °F 20% 30.72 in 10.0 mi NW 6.9 mph 19.6 mph N/A   Scattered Clouds
3:51 PM 86.9 °F 38.8 °F 18% 30.69 in 10.0 mi NW 6.9 mph 13.8 mph N/A   Scattered Clouds
4:51 PM 86.9 °F 37.9 °F 18% 30.69 in 10.0 mi NW 6.9 mph 20.7 mph N/A   Scattered Clouds
5:51 PM 86.9 °F 37.9 °F 18% 30.69 in 10.0 mi NW 9.2 mph 16.1 mph N/A   Scattered Clouds
6:51 PM 86.0 °F 36.9 °F 17% 30.69 in 10.0 mi NW 10.4 mph - N/A   Scattered Clouds
7:51 PM 77.9 °F 43.9 °F 30% 30.72 in 10.0 mi WNW 3.5 mph - N/A   Scattered Clouds
8:51 PM 72.9 °F 45.0 °F 37% 30.73 in 10.0 mi Calm Calm - N/A   Clear
9:51 PM 74.8 °F 41.9 °F 31% 30.76 in 10.0 mi Calm Calm - N/A   Clear
10:51 PM 68.9 °F 45.9 °F 44% 30.79 in 10.0 mi Calm Calm - N/A   Partly Cloudy
11:51 PM 59.9 °F 43.0 °F 54% 30.85 in 10.0 mi NE 11.5 mph 27.6 mph N/A   Mostly Cloudy